Location: Unspecified
(0.0000°N, 0.0000°E)
Time: 13:51:45
(UTC+00:00)

ISS - Pass Details

Date: 28 March 2017
Orbit: 400 x 409 km, 51.6° (Epoch: 23 April)

Event Time Altitude Azimuth Distance (km) Brightness Sun altitude
Exits shadow 05:32:46 - 299° (WNW) 1,675 -1.2 -8.1°
Reaches altitude 10° 05:33:20 10° 294° (WNW) 1,466 -1.5 -7.9°
Maximum altitude 05:36:11 27° 234° (SW) 831 -2.7 -7.2°
Drops below altitude 10° 05:39:01 10° 175° (S) 1,470 -1.0 -6.5°
Sets 05:41:18 0° 162° (SSE) 2,332 0.2 -5.9°
